Location: Bagnolo San Vito
(45.0833°N, 10.8833°E)
Time: 00:21:56
(UTC+00:00)

Cosmos 44 Rocket - Pass Details

Date: 03 March 2021
Orbit: 636 x 754 km, 65.1° (Epoch: 17 April)

Event Time Altitude Azimuth Distance (km) Brightness Sun altitude
Rises 18:21:01 0° 321° (NW) 3,211 7.4 -13.9°
Reaches altitude 10° 18:23:26 10° 318° (NW) 2,285 6.7 -14.3°
Maximum altitude 18:28:35 58° 240° (WSW) 872 4.0 -15.2°
Drops below altitude 10° 18:33:40 10° 162° (SSE) 2,250 5.7 -16.1°
Enters shadow 18:35:30 - 159° (SSE) 2,949 6.3 -16.4°
